CW8496 Weather Reports


Display with metric or nautical units.
time (UTC)temp
F
wind
direction
speed
MPH
gust
MPH
rain 1hr
in
rain 24hr
in
rain mn
in
humidity
%
barometer
mb
20260905110018 55 270 7.0 14.0 0.00 0.18 0.18 79 1023.3
20260905103020 56 270 5.0 11.0 0.00 0.18 0.18 76 1022.9
20260905100019 56 270 5.0 8.0 0.00 0.18 0.18 76 1021.8
20260905093018 55 270 5.0 7.0 0.00 0.18 0.18 77 1021.2
20260905090017 55 270 4.0 9.0 0.00 0.18 0.18 77 1020.7
20260905083017 56 270 4.0 8.0 0.00 0.18 0.18 76 1021.1
20260905073119 56 270 5.0 11.0 0.00 0.18 0.18 77 1020.6
20260905070119 55 293 5.0 11.0 0.00 0.18 0.18 79 1020.3
20260905063018 55 270 8.0 15.0 0.01 0.18 0.18 80 1020.9
20260905060017 53 248 6.0 17.0 0.01 0.18 0.18 85 1021.4
20260905053018 53 248 4.0 13.0 0.01 0.17 0.17 90 1021.3
20260905050021 54 270 5.0 14.0 0.15 0.17 0.17 91 1021.7
20260905043017 54 248 6.0 24.0 0.14 0.16 0.16 89 1022.2
20260905040016 64 0.0 8.0 0.00 0.02 0.02 67 1021.7
20260905033016 63 270 1.0 7.0 0.00 0.02 0.02 68 1022.5
20260905030018 63 0.0 9.0 0.00 0.02 0.02 68 1023.2
20260905023016 65 293 1.0 13.0 0.00 0.02 0.02 68 1023.6
20260905020017 62 0.0 12.0 0.00 0.02 0.02 69 1024.1
20260905013017 63 293 1.0 13.0 0.00 0.02 0.02 66 1024.5
20260905010016 60 270 1.0 11.0 0.00 0.02 0.02 68 1025.3
20260905003103 60 0.0 10.0 0.00 0.02 0.02 67 1025.6
20260905000018 61 0.0 13.0 0.00 0.02 0.02 65 1026.2
20260904233018 62 23 1.0 13.0 0.00 0.02 0.02 58 1026.5
20260904230018 61 0 2.0 14.0 0.00 0.02 0.02 60 1026.7
20260904223039 60 0.0 6.0 0.00 0.02 0.02 63 1027.1
20260904220019 55 0.0 3.0 0.00 0.02 0.02 77 1027.1
20260904213040 51 0.0 0.0 0.00 0.02 0.02 88 1026.6
20260904210017 49 0.0 0.0 0.02 0.02 0.02 88 1026.8
20260904203018 52 0.0 4.0 0.02 0.02 0.02 80 1027.8
20260904200019 52 0.0 0.0 0.00 0.00 0.00 68 1026.8
20260904193019 51 0.0 0.0 0.00 0.00 0.00 70 1027.0
20260904190017 51 0.0 0.0 0.00 0.00 0.00 73 1027.7
20260904183017 51 0.0 0.0 0.00 0.00 0.00 72 1027.7
20260904180017 52 0.0 5.0 0.00 0.00 0.00 71 1027.6
20260904173017 50 0.0 4.0 0.00 0.00 0.00 74 1028.3
20260904170017 50 0.0 0.0 0.00 0.00 0.00 75 1028.5
20260904163057 49 0.0 0.0 0.00 0.00 0.00 77 1029.0
20260904160100 49 0.0 0.0 0.00 0.00 0.00 78 1029.4
20260904153018 49 0.0 0.0 0.00 0.00 0.00 81 1029.6
20260904150018 49 0.0 0.0 0.00 0.00 0.00 81 1030.3
20260904143017 49 0.0 0.0 0.00 0.00 0.00 81 1030.0
20260904140037 49 0.0 0.0 0.00 0.00 0.00 82 1030.1
20260904133018 49 0.0 0.0 0.00 0.00 0.00 83 1030.2
20260904130018 49 0.0 0.0 0.00 0.00 0.00 82 1030.3
20260904123017 49 0.0 0.0 0.00 0.00 0.00 80 1030.0
20260904120058 49 0.0 0.0 0.00 0.00 0.00 81 1029.8
20260904113017 49 0.0 0.0 0.00 0.00 0.00 81 1029.6